Location: Ailingen
(47.6833°N, 9.5000°E)
Time: 12:59:23
(UTC+00:00)

Cosmos 304 Rocket - Pass Details

Date: 18 November 2025
Orbit: 668 x 677 km, 74.0° (Epoch: 06 December)

Event Time Altitude Azimuth Distance (km) Brightness Sun altitude
Rises 17:01:42 0° 174° (S) 3,001 7.2 -13.3°
Reaches altitude 10° 17:04:10 10° 164° (SSE) 2,094 6.3 -13.7°
Maximum altitude 17:08:19 32° 102° (ESE) 1,159 4.5 -14.4°
Enters shadow 17:10:23 22° 59° (ENE) 1,453 4.9 -14.7°
